Year,Month,Day,Hour,Minute,Value (Times are PST for barometer in hPa)
2008,01,05,00,00,968.80
2008,01,05,00,01,968.80
2008,01,05,00,03,968.80
2008,01,05,00,05,968.80
2008,01,05,00,06,968.80
2008,01,05,00,08,968.80
2008,01,05,00,10,968.80
2008,01,05,00,11,968.80
2008,01,05,00,13,968.80
2008,01,05,00,14,968.80
2008,01,05,00,15,968.80
2008,01,05,00,16,968.80
2008,01,05,00,17,968.80
2008,01,05,00,18,968.80
2008,01,05,00,20,968.80
2008,01,05,00,21,968.80
2008,01,05,00,22,968.80
2008,01,05,00,23,968.80
2008,01,05,00,24,968.80
2008,01,05,00,25,968.80
2008,01,05,00,26,968.80
2008,01,05,00,27,968.80
2008,01,05,00,28,968.80
2008,01,05,00,29,968.80
2008,01,05,00,30,968.70
2008,01,05,00,31,968.70
2008,01,05,00,32,968.70
2008,01,05,00,33,968.70
2008,01,05,00,34,968.70
2008,01,05,00,35,968.70
2008,01,05,00,36,968.70
2008,01,05,00,37,968.70
2008,01,05,00,38,968.70
2008,01,05,00,39,968.70
2008,01,05,00,40,968.70
2008,01,05,00,41,968.70
2008,01,05,00,42,968.70
2008,01,05,00,43,968.70
2008,01,05,00,44,968.70
2008,01,05,00,45,969.00
2008,01,05,00,46,969.00
2008,01,05,00,47,969.00
2008,01,05,00,48,969.00
2008,01,05,00,49,969.00
2008,01,05,00,50,969.00
2008,01,05,00,51,969.00
2008,01,05,00,52,969.00
2008,01,05,00,53,969.00
2008,01,05,00,55,969.00
2008,01,05,00,56,969.00
2008,01,05,00,57,969.00
2008,01,05,00,58,969.00
2008,01,05,00,59,969.00
2008,01,05,01,00,968.90
2008,01,05,01,01,968.90
2008,01,05,01,02,968.90
2008,01,05,01,03,968.90
2008,01,05,01,04,968.90
2008,01,05,01,05,968.90
2008,01,05,01,06,968.90
2008,01,05,01,07,968.90
2008,01,05,01,08,968.90
2008,01,05,01,09,968.90
2008,01,05,01,10,968.90
2008,01,05,01,11,968.90
2008,01,05,01,12,968.90
2008,01,05,01,13,968.90
2008,01,05,01,14,968.90
2008,01,05,01,15,969.70
2008,01,05,01,16,969.70
2008,01,05,01,18,969.70
2008,01,05,01,19,969.70
2008,01,05,01,20,969.70
2008,01,05,01,21,969.70
2008,01,05,01,22,969.70
2008,01,05,01,24,969.70
2008,01,05,01,26,969.70
2008,01,05,01,28,969.70
2008,01,05,01,29,969.70
2008,01,05,01,30,969.90
2008,01,05,01,31,969.90
2008,01,05,01,32,969.90
2008,01,05,01,33,969.90
2008,01,05,01,34,969.90
2008,01,05,01,35,969.90
2008,01,05,01,36,969.90
2008,01,05,01,37,969.90
2008,01,05,01,39,969.90
2008,01,05,01,41,969.90
2008,01,05,01,42,969.90
2008,01,05,01,43,969.90
2008,01,05,01,44,969.90
2008,01,05,01,45,969.90
2008,01,05,01,46,969.90
2008,01,05,01,47,969.90
2008,01,05,01,48,969.90
2008,01,05,01,49,969.90
2008,01,05,01,50,969.90
2008,01,05,01,51,969.90
2008,01,05,01,52,969.90
2008,01,05,01,53,969.90
2008,01,05,01,54,969.90
2008,01,05,01,55,969.90
2008,01,05,01,56,969.90
2008,01,05,01,57,969.90
2008,01,05,01,58,969.90
2008,01,05,01,59,969.90
2008,01,05,02,00,970.50
2008,01,05,02,01,970.50
2008,01,05,02,02,970.50
2008,01,05,02,03,970.50
2008,01,05,02,04,970.50
2008,01,05,02,05,970.50
2008,01,05,02,06,970.50
2008,01,05,02,07,970.50
2008,01,05,02,08,970.50
2008,01,05,02,09,970.50
2008,01,05,02,10,970.50
2008,01,05,02,11,970.50
2008,01,05,02,12,970.50
2008,01,05,02,13,970.50
2008,01,05,02,14,970.50
2008,01,05,02,15,970.80
2008,01,05,02,16,970.80
2008,01,05,02,17,970.80
2008,01,05,02,18,970.80
2008,01,05,02,19,970.80
2008,01,05,02,20,970.80
2008,01,05,02,21,970.80
2008,01,05,02,22,970.80
2008,01,05,02,23,970.80
2008,01,05,02,24,970.80
2008,01,05,02,25,970.80
2008,01,05,02,26,970.80
2008,01,05,02,27,970.80
2008,01,05,02,28,970.80
2008,01,05,02,29,970.80
2008,01,05,02,30,970.90
2008,01,05,02,31,970.90
2008,01,05,02,32,970.90
2008,01,05,02,33,970.90
2008,01,05,02,34,970.90
2008,01,05,02,35,970.90
2008,01,05,02,36,970.90
2008,01,05,02,37,970.90
2008,01,05,02,38,970.90
2008,01,05,02,40,970.90
2008,01,05,02,41,970.90
2008,01,05,02,42,970.90
2008,01,05,02,43,970.90
2008,01,05,02,45,971.60
2008,01,05,02,46,971.60
2008,01,05,02,47,971.60
2008,01,05,02,48,971.60
2008,01,05,02,49,971.60
2008,01,05,02,50,971.60
2008,01,05,02,51,971.60
2008,01,05,02,52,971.60
2008,01,05,02,53,971.60
2008,01,05,02,54,971.60
2008,01,05,02,55,971.60
2008,01,05,02,56,971.60
2008,01,05,02,57,971.60
2008,01,05,02,58,971.60
2008,01,05,02,59,971.60
2008,01,05,03,00,971.90
2008,01,05,03,01,971.90
2008,01,05,03,02,971.90
2008,01,05,03,03,971.90
2008,01,05,03,04,971.90
2008,01,05,03,05,971.90
2008,01,05,03,06,971.90
2008,01,05,03,07,971.90
2008,01,05,03,08,971.90
2008,01,05,03,09,971.90
2008,01,05,03,10,971.90
2008,01,05,03,11,971.90
2008,01,05,03,12,971.90
2008,01,05,03,13,971.90
2008,01,05,03,14,971.90
2008,01,05,03,15,972.40
2008,01,05,03,16,972.40
2008,01,05,03,17,972.40
2008,01,05,03,18,972.40
2008,01,05,03,19,972.40
2008,01,05,03,20,972.40
2008,01,05,03,21,972.40
2008,01,05,03,22,972.40
2008,01,05,03,23,972.40
2008,01,05,03,24,972.40
2008,01,05,03,25,972.40
2008,01,05,03,26,972.40
2008,01,05,03,27,972.40
2008,01,05,03,28,972.40
2008,01,05,03,29,972.40
2008,01,05,03,30,972.70
2008,01,05,03,31,972.70
2008,01,05,03,32,972.70
2008,01,05,03,33,972.70
2008,01,05,03,34,972.70
2008,01,05,03,35,972.70
2008,01,05,03,36,972.70
2008,01,05,03,37,972.70
2008,01,05,03,38,972.70
2008,01,05,03,40,972.70
2008,01,05,03,41,972.70
2008,01,05,03,42,972.70
2008,01,05,03,43,972.70
2008,01,05,03,44,972.70
2008,01,05,03,45,972.90
2008,01,05,03,46,972.90
2008,01,05,03,47,972.90
2008,01,05,03,48,972.90
2008,01,05,03,49,972.90
2008,01,05,03,50,972.90
2008,01,05,03,51,972.90
2008,01,05,03,52,972.90
2008,01,05,03,53,972.90
2008,01,05,03,54,972.90
2008,01,05,03,55,972.90
2008,01,05,03,56,972.90
2008,01,05,03,57,972.90
2008,01,05,03,59,972.90
2008,01,05,04,00,973.00
2008,01,05,04,01,973.00
2008,01,05,04,02,973.00
2008,01,05,04,03,973.00
2008,01,05,04,04,973.00
2008,01,05,04,05,973.00
2008,01,05,04,06,973.00
2008,01,05,04,07,973.00
2008,01,05,04,08,973.00
2008,01,05,04,09,973.00
2008,01,05,04,10,973.00
2008,01,05,04,11,973.00
2008,01,05,04,13,973.00
2008,01,05,04,14,973.00
2008,01,05,04,15,973.50
2008,01,05,04,16,973.50
2008,01,05,04,17,973.50
2008,01,05,04,18,973.50
2008,01,05,04,19,973.50
2008,01,05,04,20,973.50
2008,01,05,04,21,973.50
2008,01,05,04,22,973.50
2008,01,05,04,23,973.50
2008,01,05,04,24,973.50
2008,01,05,04,25,973.50
2008,01,05,04,26,973.50
2008,01,05,04,28,973.50
2008,01,05,04,29,973.50
2008,01,05,04,30,974.00
2008,01,05,04,31,974.00
2008,01,05,04,33,974.00
2008,01,05,04,34,974.00
2008,01,05,04,35,974.00
2008,01,05,04,36,974.00
2008,01,05,04,37,974.00
2008,01,05,04,38,974.00
2008,01,05,04,39,974.00
2008,01,05,04,40,974.00
2008,01,05,04,41,974.00
2008,01,05,04,42,974.00
2008,01,05,04,43,974.00
2008,01,05,04,44,974.00
2008,01,05,04,45,974.10
2008,01,05,04,46,974.10
2008,01,05,04,47,974.10
2008,01,05,04,48,974.10
2008,01,05,04,49,974.10
2008,01,05,04,50,974.10
2008,01,05,04,51,974.10
2008,01,05,04,52,974.10
2008,01,05,04,53,974.10
2008,01,05,04,54,974.10
2008,01,05,04,55,974.10
2008,01,05,04,56,974.10
2008,01,05,04,57,974.10
2008,01,05,04,58,974.10
2008,01,05,04,59,974.10
2008,01,05,05,00,974.40
2008,01,05,05,01,974.40
2008,01,05,05,02,974.40
2008,01,05,05,03,974.40
2008,01,05,05,04,974.40
2008,01,05,05,05,974.40
2008,01,05,05,06,974.40
2008,01,05,05,07,974.40
2008,01,05,05,08,974.40
2008,01,05,05,09,974.40
2008,01,05,05,10,974.40
2008,01,05,05,11,974.40
2008,01,05,05,12,974.40
2008,01,05,05,13,974.40
2008,01,05,05,14,974.40
2008,01,05,05,15,974.50
2008,01,05,05,16,974.50
2008,01,05,05,17,974.50
2008,01,05,05,18,974.50
2008,01,05,05,19,974.50
2008,01,05,05,20,974.50
2008,01,05,05,21,974.50
2008,01,05,05,22,974.50
2008,01,05,05,23,974.50
2008,01,05,05,24,974.50
2008,01,05,05,25,974.50
2008,01,05,05,26,974.50
2008,01,05,05,27,974.50
2008,01,05,05,28,974.50
2008,01,05,05,29,974.50
2008,01,05,05,30,975.30
2008,01,05,05,31,975.30
2008,01,05,05,32,975.30
2008,01,05,05,33,975.30
2008,01,05,05,34,975.30
2008,01,05,05,35,975.30
2008,01,05,05,36,975.30
2008,01,05,05,37,975.30
2008,01,05,05,38,975.30
2008,01,05,05,39,975.30
2008,01,05,05,40,975.30
2008,01,05,05,41,975.30
2008,01,05,05,42,975.30
2008,01,05,05,43,975.30
2008,01,05,05,44,975.30
2008,01,05,05,45,975.20
2008,01,05,05,46,975.20
2008,01,05,05,47,975.20
2008,01,05,05,48,975.20
2008,01,05,05,49,975.20
2008,01,05,05,50,975.20
2008,01,05,05,51,975.20
2008,01,05,05,52,975.20
2008,01,05,05,53,975.20
2008,01,05,05,54,975.20
2008,01,05,05,55,975.20
2008,01,05,05,56,975.20
2008,01,05,05,57,975.20
2008,01,05,05,58,975.20
2008,01,05,05,59,975.20
2008,01,05,06,00,975.40
2008,01,05,06,01,975.40
2008,01,05,06,02,975.40
2008,01,05,06,03,975.40
2008,01,05,06,04,975.40
2008,01,05,06,05,975.40
2008,01,05,06,06,975.40
2008,01,05,06,07,975.40
2008,01,05,06,08,975.40
2008,01,05,06,09,975.40
2008,01,05,06,10,975.40
2008,01,05,06,11,975.40
2008,01,05,06,12,975.40
2008,01,05,06,13,975.40
2008,01,05,06,14,975.40
2008,01,05,06,15,975.80
2008,01,05,06,16,975.80
2008,01,05,06,17,975.80
2008,01,05,06,18,975.80
2008,01,05,06,19,975.80
2008,01,05,06,20,975.80
2008,01,05,06,21,975.80
2008,01,05,06,22,975.80
2008,01,05,06,23,975.80
2008,01,05,06,24,975.80
2008,01,05,06,25,975.80
2008,01,05,06,26,975.80
2008,01,05,06,27,975.80
2008,01,05,06,28,975.80
2008,01,05,06,29,975.80
2008,01,05,06,30,975.90
2008,01,05,06,31,975.90
2008,01,05,06,32,975.90
2008,01,05,06,33,975.90
2008,01,05,06,34,975.90
2008,01,05,06,35,975.90
2008,01,05,06,36,975.90
2008,01,05,06,37,975.90
2008,01,05,06,38,975.90
2008,01,05,06,39,975.90
2008,01,05,06,40,975.90
2008,01,05,06,41,975.90
2008,01,05,06,42,975.90
2008,01,05,06,43,975.90
2008,01,05,06,44,975.90
2008,01,05,06,45,976.10
2008,01,05,06,46,976.10
2008,01,05,06,47,976.10
2008,01,05,06,48,976.10
2008,01,05,06,49,976.10
2008,01,05,06,50,976.10
2008,01,05,06,51,976.10
2008,01,05,06,52,976.10
2008,01,05,06,53,976.10
2008,01,05,06,54,976.10
2008,01,05,06,55,976.10
2008,01,05,06,56,976.10
2008,01,05,06,57,976.10
2008,01,05,06,58,976.10
2008,01,05,06,59,976.10
2008,01,05,07,00,976.60
2008,01,05,07,01,976.60
2008,01,05,07,02,976.60
2008,01,05,07,03,976.60
2008,01,05,07,04,976.60
2008,01,05,07,05,976.60
2008,01,05,07,06,976.60
2008,01,05,07,07,976.60
2008,01,05,07,08,976.60
2008,01,05,07,09,976.60
2008,01,05,07,10,976.60
2008,01,05,07,11,976.60
2008,01,05,07,12,976.60
2008,01,05,07,13,976.60
2008,01,05,07,14,976.60
2008,01,05,07,15,976.20
2008,01,05,07,16,976.20
2008,01,05,07,17,976.20
2008,01,05,07,18,976.20
2008,01,05,07,19,976.20
2008,01,05,07,20,976.20
2008,01,05,07,21,976.20
2008,01,05,07,22,976.20
2008,01,05,07,23,976.20
2008,01,05,07,24,976.20
2008,01,05,07,25,976.20
2008,01,05,07,26,976.20
2008,01,05,07,27,976.20
2008,01,05,07,28,976.20
2008,01,05,07,29,976.20
2008,01,05,07,30,976.20
2008,01,05,07,31,976.20
2008,01,05,07,32,976.20
2008,01,05,07,33,976.20
2008,01,05,07,34,976.20
2008,01,05,07,35,976.20
2008,01,05,07,36,976.20
2008,01,05,07,37,976.20
2008,01,05,07,38,976.20
2008,01,05,07,39,976.20
2008,01,05,07,40,976.20
2008,01,05,07,41,976.20
2008,01,05,07,42,976.20
2008,01,05,07,43,976.20
2008,01,05,07,44,976.20
2008,01,05,07,45,976.60
2008,01,05,07,46,976.60
2008,01,05,07,47,976.60
2008,01,05,07,48,976.60
2008,01,05,07,49,976.60
2008,01,05,07,50,976.60
2008,01,05,07,51,976.60
2008,01,05,07,52,976.60
2008,01,05,07,53,976.60
2008,01,05,07,54,976.60
2008,01,05,07,55,976.60
2008,01,05,07,56,976.60
2008,01,05,07,57,976.60
2008,01,05,07,58,976.60
2008,01,05,07,59,976.60
2008,01,05,08,00,977.30
2008,01,05,08,01,977.30
2008,01,05,08,02,977.30
2008,01,05,08,03,977.30
2008,01,05,08,04,977.30
2008,01,05,08,05,977.30
2008,01,05,08,06,977.30
2008,01,05,08,07,977.30
2008,01,05,08,08,977.30
2008,01,05,08,09,977.30
2008,01,05,08,10,977.30
2008,01,05,08,11,977.30
2008,01,05,08,12,977.30
2008,01,05,08,13,977.30
2008,01,05,08,14,977.30
2008,01,05,08,15,977.20
2008,01,05,08,16,977.20
2008,01,05,08,17,977.20
2008,01,05,08,18,977.20
2008,01,05,08,19,977.20
2008,01,05,08,20,977.20
2008,01,05,08,21,977.20
2008,01,05,08,22,977.20
2008,01,05,08,23,977.20
2008,01,05,08,24,977.20
2008,01,05,08,26,977.20
2008,01,05,08,27,977.20
2008,01,05,08,28,977.20
2008,01,05,08,29,977.20
2008,01,05,08,30,977.70
2008,01,05,08,31,977.70
2008,01,05,08,32,977.70
2008,01,05,08,33,977.70
2008,01,05,08,34,977.70
2008,01,05,08,36,977.70
2008,01,05,08,37,977.70
2008,01,05,08,38,977.70
2008,01,05,08,39,977.70
2008,01,05,08,40,977.70
2008,01,05,08,41,977.70
2008,01,05,08,42,977.70
2008,01,05,08,43,977.70
2008,01,05,08,44,977.70
2008,01,05,08,45,978.20
2008,01,05,08,46,978.20
2008,01,05,08,47,978.20
2008,01,05,08,48,978.20
2008,01,05,08,49,978.20
2008,01,05,08,51,978.20
2008,01,05,08,52,978.20
2008,01,05,08,53,978.20
2008,01,05,08,54,978.20
2008,01,05,08,55,978.20
2008,01,05,08,56,978.20
2008,01,05,08,57,978.20
2008,01,05,08,58,978.20
2008,01,05,08,59,978.20
2008,01,05,09,00,978.90
2008,01,05,09,01,978.90
2008,01,05,09,02,978.90
2008,01,05,09,03,978.90
2008,01,05,09,04,978.90
2008,01,05,09,05,978.90
2008,01,05,09,06,978.90
2008,01,05,09,07,978.90
2008,01,05,09,08,978.90
2008,01,05,09,09,978.90
2008,01,05,09,10,978.90
2008,01,05,09,11,978.90
2008,01,05,09,12,978.90
2008,01,05,09,13,978.90
2008,01,05,09,14,978.90
2008,01,05,09,15,979.30
2008,01,05,09,16,979.30
2008,01,05,09,17,979.30
2008,01,05,09,18,979.30
2008,01,05,09,19,979.30
2008,01,05,09,20,979.30
2008,01,05,09,21,979.30
2008,01,05,09,22,979.30
2008,01,05,09,23,979.30
2008,01,05,09,24,979.30
2008,01,05,09,25,979.30
2008,01,05,09,26,979.30
2008,01,05,09,27,979.30
2008,01,05,09,28,979.30
2008,01,05,09,29,979.30
2008,01,05,09,30,979.70
2008,01,05,09,31,979.70
2008,01,05,09,32,979.70
2008,01,05,09,33,979.70
2008,01,05,09,34,979.70
2008,01,05,09,35,979.70
2008,01,05,09,36,979.70
2008,01,05,09,37,979.70
2008,01,05,09,38,979.70
2008,01,05,09,39,979.70
2008,01,05,09,40,979.70
2008,01,05,09,41,979.70
2008,01,05,09,42,979.70
2008,01,05,09,43,979.70
2008,01,05,09,44,979.70
2008,01,05,09,45,980.20
2008,01,05,09,46,980.20
2008,01,05,09,47,980.20
2008,01,05,09,48,980.20
2008,01,05,09,49,980.20
2008,01,05,09,50,980.20
2008,01,05,09,51,980.20
2008,01,05,09,53,980.20
2008,01,05,09,54,980.20
2008,01,05,09,55,980.20
2008,01,05,09,56,980.20
2008,01,05,09,57,980.20
2008,01,05,09,58,980.20
2008,01,05,09,59,980.20
2008,01,05,10,00,980.80
2008,01,05,10,01,980.80
2008,01,05,10,02,980.80
2008,01,05,10,03,980.80
2008,01,05,10,04,980.80
2008,01,05,10,05,980.80
2008,01,05,10,06,980.80
2008,01,05,10,07,980.80
2008,01,05,10,08,980.80
2008,01,05,10,09,980.80
2008,01,05,10,10,980.80
2008,01,05,10,11,980.80
2008,01,05,10,12,980.80
2008,01,05,10,13,980.80
2008,01,05,10,14,980.80
2008,01,05,10,15,981.00
2008,01,05,10,16,981.00
2008,01,05,10,17,981.00
2008,01,05,10,18,981.00
2008,01,05,10,19,981.00
2008,01,05,10,20,981.00
2008,01,05,10,21,981.00
2008,01,05,10,22,981.00
2008,01,05,10,23,981.00
2008,01,05,10,24,981.00
2008,01,05,10,25,981.00
2008,01,05,10,26,981.00
2008,01,05,10,27,981.00
2008,01,05,10,28,981.00
2008,01,05,10,29,981.00
2008,01,05,10,30,981.80
2008,01,05,10,31,981.80
2008,01,05,10,32,981.80
2008,01,05,10,33,981.80
2008,01,05,10,34,981.80
2008,01,05,10,35,981.80
2008,01,05,10,36,981.80
2008,01,05,10,37,981.80
2008,01,05,10,38,981.80
2008,01,05,10,39,981.80
2008,01,05,10,40,981.80
2008,01,05,10,41,981.80
2008,01,05,10,42,981.80
2008,01,05,10,43,981.80
2008,01,05,10,44,981.80
2008,01,05,10,45,982.00
2008,01,05,10,46,982.00
2008,01,05,10,47,982.00
2008,01,05,10,48,982.00
2008,01,05,10,49,982.00
2008,01,05,10,50,982.00
2008,01,05,10,51,982.00
2008,01,05,10,52,982.00
2008,01,05,10,53,982.00
2008,01,05,10,54,982.00
2008,01,05,10,55,982.00
2008,01,05,10,56,982.00
2008,01,05,10,57,982.00
2008,01,05,10,58,982.00
2008,01,05,10,59,982.00
2008,01,05,11,00,982.40
2008,01,05,11,01,982.40
2008,01,05,11,02,982.40
2008,01,05,11,03,982.40
2008,01,05,11,04,982.40
2008,01,05,11,05,982.40
2008,01,05,11,06,982.40
2008,01,05,11,07,982.40
2008,01,05,11,08,982.40
2008,01,05,11,09,982.40
2008,01,05,11,10,982.40
2008,01,05,11,11,982.40
2008,01,05,11,12,982.40
2008,01,05,11,13,982.40
2008,01,05,11,14,982.40
2008,01,05,11,15,982.80
2008,01,05,11,16,982.80
2008,01,05,11,17,982.80
2008,01,05,11,18,982.80
2008,01,05,11,19,982.80
2008,01,05,11,20,982.80
2008,01,05,11,21,982.80
2008,01,05,11,22,982.80
2008,01,05,11,23,982.80
2008,01,05,11,24,982.80
2008,01,05,11,25,982.80
2008,01,05,11,26,982.80
2008,01,05,11,27,982.80
2008,01,05,11,28,982.80
2008,01,05,11,29,982.80
2008,01,05,11,30,983.30
2008,01,05,11,31,983.30
2008,01,05,11,32,983.30
2008,01,05,11,33,983.30
2008,01,05,11,34,983.30
2008,01,05,11,35,983.30
2008,01,05,11,36,983.30
2008,01,05,11,37,983.30
2008,01,05,11,38,983.30
2008,01,05,11,39,983.30
2008,01,05,11,40,983.30
2008,01,05,11,41,983.30
2008,01,05,11,42,983.30
2008,01,05,11,43,983.30
2008,01,05,11,44,983.30
2008,01,05,11,45,983.10
2008,01,05,11,46,983.10
2008,01,05,11,47,983.10
2008,01,05,11,48,983.10
2008,01,05,11,49,983.10
2008,01,05,11,50,983.10
2008,01,05,11,51,983.10
2008,01,05,11,52,983.10
2008,01,05,11,53,983.10
2008,01,05,11,54,983.10
2008,01,05,11,55,983.10
2008,01,05,11,56,983.10
2008,01,05,11,57,983.10
2008,01,05,11,58,983.10
2008,01,05,11,59,983.10
2008,01,05,12,00,983.70
2008,01,05,12,01,983.70
2008,01,05,12,02,983.70
2008,01,05,12,03,983.70
2008,01,05,12,04,983.70
2008,01,05,12,05,983.70
2008,01,05,12,06,983.70
2008,01,05,12,07,983.70
2008,01,05,12,08,983.70
2008,01,05,12,09,983.70
2008,01,05,12,10,983.70
2008,01,05,12,11,983.70
2008,01,05,12,12,983.70
2008,01,05,12,13,983.70
2008,01,05,12,14,983.70
2008,01,05,12,15,984.30
2008,01,05,12,16,984.30
2008,01,05,12,17,984.30
2008,01,05,12,18,984.30
2008,01,05,12,19,984.30
2008,01,05,12,20,984.30
2008,01,05,12,21,984.30
2008,01,05,12,22,984.30
2008,01,05,12,23,984.30
2008,01,05,12,24,984.30
2008,01,05,12,25,984.30
2008,01,05,12,26,984.30
2008,01,05,12,28,984.30
2008,01,05,12,29,984.30
2008,01,05,12,30,984.40
2008,01,05,12,31,984.40
2008,01,05,12,32,984.40
2008,01,05,12,33,984.40
2008,01,05,12,34,984.40
2008,01,05,12,35,984.40
2008,01,05,12,36,984.40
2008,01,05,12,37,984.40
2008,01,05,12,38,984.40
2008,01,05,12,39,984.40
2008,01,05,12,40,984.40
2008,01,05,12,41,984.40
2008,01,05,12,42,984.40
2008,01,05,12,43,984.40
2008,01,05,12,44,984.40
2008,01,05,12,45,984.70
2008,01,05,12,46,984.70
2008,01,05,12,47,984.70
2008,01,05,12,48,984.70
2008,01,05,12,49,984.70
2008,01,05,12,50,984.70
2008,01,05,12,51,984.70
2008,01,05,12,52,984.70
2008,01,05,12,53,984.70
2008,01,05,12,54,984.70
2008,01,05,12,55,984.70
2008,01,05,12,56,984.70
2008,01,05,12,57,984.70
2008,01,05,12,58,984.70
2008,01,05,12,59,984.70
2008,01,05,13,00,985.10
2008,01,05,13,01,985.10
2008,01,05,13,02,985.10
2008,01,05,13,03,985.10
2008,01,05,13,04,985.10
2008,01,05,13,05,985.10
2008,01,05,13,06,985.10
2008,01,05,13,07,985.10
2008,01,05,13,08,985.10
2008,01,05,13,09,985.10
2008,01,05,13,10,985.10
2008,01,05,13,11,985.10
2008,01,05,13,12,985.10
2008,01,05,13,13,985.10
2008,01,05,13,14,985.10
2008,01,05,13,15,985.40
2008,01,05,13,16,985.40
2008,01,05,13,17,985.40
2008,01,05,13,18,985.40
2008,01,05,13,19,985.40
2008,01,05,13,20,985.40
2008,01,05,13,21,985.40
2008,01,05,13,22,985.40
2008,01,05,13,23,985.40
2008,01,05,13,24,985.40
2008,01,05,13,25,985.40
2008,01,05,13,26,985.40
2008,01,05,13,27,985.40
2008,01,05,13,28,985.40
2008,01,05,13,29,985.40
2008,01,05,13,31,985.60
2008,01,05,13,32,985.60
2008,01,05,13,33,985.60
2008,01,05,13,34,985.60
2008,01,05,13,35,985.60
2008,01,05,13,36,985.60
2008,01,05,13,37,985.60
2008,01,05,13,38,985.60
2008,01,05,13,39,985.60
2008,01,05,13,40,985.60
2008,01,05,13,41,985.60
2008,01,05,13,42,985.60
2008,01,05,13,43,985.60
2008,01,05,13,44,985.60
2008,01,05,13,45,985.70
2008,01,05,13,46,985.70
2008,01,05,13,47,985.70
2008,01,05,13,48,985.70
2008,01,05,13,49,985.70
2008,01,05,13,50,985.70
2008,01,05,13,51,985.70
2008,01,05,13,52,985.70
2008,01,05,13,53,985.70
2008,01,05,13,54,985.70
2008,01,05,13,55,985.70
2008,01,05,13,56,985.70
2008,01,05,13,57,985.70
2008,01,05,13,58,985.70
2008,01,05,13,59,985.70
2008,01,05,14,00,986.00
2008,01,05,14,01,986.00
2008,01,05,14,02,986.00
2008,01,05,14,03,986.00
2008,01,05,14,04,986.00
2008,01,05,14,05,986.00
2008,01,05,14,06,986.00
2008,01,05,14,07,986.00
2008,01,05,14,08,986.00
2008,01,05,14,09,986.00
2008,01,05,14,10,986.00
2008,01,05,14,11,986.00
2008,01,05,14,12,986.00
2008,01,05,14,13,986.00
2008,01,05,14,14,986.00
2008,01,05,14,15,986.20
2008,01,05,14,17,986.20
2008,01,05,14,18,986.20
2008,01,05,14,19,986.20
2008,01,05,14,20,986.20
2008,01,05,14,21,986.20
2008,01,05,14,22,986.20
2008,01,05,14,23,986.20
2008,01,05,14,24,986.20
2008,01,05,14,25,986.20
2008,01,05,14,26,986.20
2008,01,05,14,27,986.20
2008,01,05,14,28,986.20
2008,01,05,14,29,986.20
2008,01,05,14,30,986.20
2008,01,05,14,31,986.20
2008,01,05,14,32,986.20
2008,01,05,14,33,986.20
2008,01,05,14,34,986.20
2008,01,05,14,35,986.20
2008,01,05,14,36,986.20
2008,01,05,14,37,986.20
2008,01,05,14,38,986.20
2008,01,05,14,39,986.20
2008,01,05,14,40,986.20
2008,01,05,14,41,986.20
2008,01,05,14,42,986.20
2008,01,05,14,43,986.20
2008,01,05,14,44,986.20
2008,01,05,14,45,986.10
2008,01,05,14,46,986.10
2008,01,05,14,47,986.10
2008,01,05,14,48,986.10
2008,01,05,14,49,986.10
2008,01,05,14,50,986.10
2008,01,05,14,51,986.10
2008,01,05,14,52,986.10
2008,01,05,14,53,986.10
2008,01,05,14,54,986.10
2008,01,05,14,55,986.10
2008,01,05,14,56,986.10
2008,01,05,14,57,986.10
2008,01,05,14,58,986.10
2008,01,05,14,59,986.10
2008,01,05,15,00,986.50
2008,01,05,15,01,986.50
2008,01,05,15,02,986.50
2008,01,05,15,03,986.50
2008,01,05,15,04,986.50
2008,01,05,15,05,986.50
2008,01,05,15,06,986.50
2008,01,05,15,07,986.50
2008,01,05,15,08,986.50
2008,01,05,15,09,986.50
2008,01,05,15,10,986.50
2008,01,05,15,11,986.50
2008,01,05,15,12,986.50
2008,01,05,15,13,986.50
2008,01,05,15,14,986.50
2008,01,05,15,15,986.80
2008,01,05,15,16,986.80
2008,01,05,15,18,986.80
2008,01,05,15,19,986.80
2008,01,05,15,20,986.80
2008,01,05,15,21,986.80
2008,01,05,15,22,986.80
2008,01,05,15,24,986.80
2008,01,05,15,25,986.80
2008,01,05,15,26,986.80
2008,01,05,15,27,986.80
2008,01,05,15,28,986.80
2008,01,05,15,29,986.80
2008,01,05,15,30,987.00
2008,01,05,15,31,987.00
2008,01,05,15,32,987.00
2008,01,05,15,33,987.00
2008,01,05,15,34,987.00
2008,01,05,15,35,987.00
2008,01,05,15,36,987.00
2008,01,05,15,37,987.00
2008,01,05,15,38,987.00
2008,01,05,15,39,987.00
2008,01,05,15,40,987.00
2008,01,05,15,41,987.00
2008,01,05,15,42,987.00
2008,01,05,15,43,987.00
2008,01,05,15,44,987.00
2008,01,05,15,45,987.30
2008,01,05,15,46,987.30
2008,01,05,15,47,987.30
2008,01,05,15,48,987.30
2008,01,05,15,49,987.30
2008,01,05,15,50,987.30
2008,01,05,15,51,987.30
2008,01,05,15,52,987.30
2008,01,05,15,53,987.30
2008,01,05,15,54,987.30
2008,01,05,15,55,987.30
2008,01,05,15,56,987.30
2008,01,05,15,57,987.30
2008,01,05,15,58,987.30
2008,01,05,15,59,987.30
2008,01,05,16,00,987.60
2008,01,05,16,01,987.60
2008,01,05,16,02,987.60
2008,01,05,16,03,987.60
2008,01,05,16,04,987.60
2008,01,05,16,05,987.60
2008,01,05,16,06,987.60
2008,01,05,16,07,987.60
2008,01,05,16,08,987.60
2008,01,05,16,09,987.60
2008,01,05,16,10,987.60
2008,01,05,16,11,987.60
2008,01,05,16,12,987.60
2008,01,05,16,13,987.60
2008,01,05,16,14,988.00
2008,01,05,16,15,988.00
2008,01,05,16,16,988.00
2008,01,05,16,17,988.00
2008,01,05,16,18,988.00
2008,01,05,16,19,988.00
2008,01,05,16,20,988.00
2008,01,05,16,21,988.00
2008,01,05,16,22,988.00
2008,01,05,16,23,988.00
2008,01,05,16,24,988.00
2008,01,05,16,25,988.00
2008,01,05,16,27,988.00
2008,01,05,16,28,988.00
2008,01,05,16,29,988.00
2008,01,05,16,30,988.10
2008,01,05,16,31,988.10
2008,01,05,16,32,988.10
2008,01,05,16,33,988.10
2008,01,05,16,34,988.10
2008,01,05,16,35,988.10
2008,01,05,16,36,988.10
2008,01,05,16,37,988.10
2008,01,05,16,38,988.10
2008,01,05,16,39,988.10
2008,01,05,16,40,988.10
2008,01,05,16,41,988.10
2008,01,05,16,42,988.10
2008,01,05,16,43,988.10
2008,01,05,16,44,988.10
2008,01,05,16,45,988.50
2008,01,05,16,46,988.50
2008,01,05,16,47,988.50
2008,01,05,16,48,988.50
2008,01,05,16,49,988.50
2008,01,05,16,50,988.50
2008,01,05,16,51,988.50
2008,01,05,16,52,988.50
2008,01,05,16,53,988.50
2008,01,05,16,54,988.50
2008,01,05,16,55,988.50
2008,01,05,16,56,988.50
2008,01,05,16,57,988.50
2008,01,05,16,58,988.50
2008,01,05,16,59,988.50
2008,01,05,17,00,988.70
2008,01,05,17,01,988.70
2008,01,05,17,02,988.70
2008,01,05,17,03,988.70
2008,01,05,17,04,988.70
2008,01,05,17,05,988.70
2008,01,05,17,06,988.70